When you browse on this site, cookies collect data to enhance your experience and personalize the content and advertising you see.
Visit our Privacy Policy to learn more. By continuing to use the site, you agree to this use of cookies and data.
  • en Suisse
  • Liste des pays
  • À 7 jours
  • Température de l'eau
  • Carte météo
  • Widgets météo
  • user-avatar
    Se connecter

    Météo par heure à Maloe Sonino

    Ce jour, 21 Août, Mercredi

    Heure Température Précipitation Vent Pression Humidité
    00:00 +20°C° 0 mm 1 m/s 752 mmHg 80%
    01:00 +19°C° 0 mm 1 m/s 753 mmHg 82%
    02:00 +17°C° 0 mm 0 m/s 753 mmHg 84%
    03:00 +17°C° 0 mm 0 m/s 753 mmHg 84%
    04:00 +17°C° 0 mm 0 m/s 753 mmHg 85%
    05:00 +17°C° 0 mm 0 m/s 753 mmHg 85%
    06:00 +19°C° 0 mm 0 m/s 753 mmHg 81%
    07:00 +20°C° 0 mm 0 m/s 753 mmHg 77%
    08:00 +22°C° 0 mm 0 m/s 754 mmHg 72%
    09:00 +25°C° 0 mm 1 m/s 753 mmHg 69%
    10:00 +27°C° 0 mm 1 m/s 753 mmHg 66%
    11:00 +28°C° 0 mm 1 m/s 753 mmHg 62%
    12:00 +28°C° 0 mm 1 m/s 753 mmHg 60%
    13:00 +29°C° 0 mm 1 m/s 753 mmHg 59%
    14:00 +29°C° 0 mm 1 m/s 753 mmHg 57%
    15:00 +29°C° 0 mm 1 m/s 752 mmHg 60%
    16:00 +28°C° 0 mm 1 m/s 752 mmHg 64%
    17:00 +28°C° 0 mm 1 m/s 752 mmHg 67%
    18:00 +26°C° 0 mm 1 m/s 752 mmHg 71%
    19:00 +25°C° 0 mm 1 m/s 752 mmHg 75%
    20:00 +23°C° 0 mm 1 m/s 752 mmHg 79%
    21:00 +22°C° 0 mm 1 m/s 752 mmHg 81%
    22:00 +22°C° 0 mm 1 m/s 752 mmHg 82%
    23:00 +20°C° 0 mm 2 m/s 752 mmHg 84%

    Demain, 22 Août, Jeudi

    Heure Température Précipitation Vent Pression Humidité
    00:00 +20°C° 0 mm 2 m/s 752 mmHg 85%
    01:00 +20°C° 0 mm 2 m/s 751 mmHg 86%
    02:00 +19°C° 0 mm 2 m/s 751 mmHg 87%
    03:00 +19°C° 0 mm 2 m/s 751 mmHg 88%
    04:00 +19°C° 0 mm 2 m/s 751 mmHg 89%
    05:00 +19°C° 0 mm 2 m/s 750 mmHg 90%
    06:00 +20°C° 0 mm 2 m/s 750 mmHg 85%
    07:00 +23°C° 0 mm 2 m/s 750 mmHg 80%
    08:00 +24°C° 0 mm 2 m/s 750 mmHg 75%
    09:00 +26°C° 0 mm 2 m/s 750 mmHg 71%
    10:00 +27°C° 0 mm 2 m/s 750 mmHg 66%
    11:00 +28°C° 0 mm 2 m/s 750 mmHg 62%
    12:00 +28°C° 0.2 mm 2 m/s 750 mmHg 63%
    13:00 +28°C° 0.2 mm 2 m/s 750 mmHg 64%
    14:00 +28°C° 0.2 mm 3 m/s 750 mmHg 65%
    15:00 +26°C° 0.5 mm 3 m/s 750 mmHg 72%
    16:00 +25°C° 0.5 mm 4 m/s 751 mmHg 78%
    17:00 +22°C° 0.5 mm 5 m/s 751 mmHg 85%
    18:00 +21°C° 0.1 mm 5 m/s 751 mmHg 86%
    19:00 +19°C° 0.1 mm 5 m/s 752 mmHg 88%
    20:00 +18°C° 0.1 mm 4 m/s 752 mmHg 89%
    21:00 +17°C° 0 mm 4 m/s 753 mmHg 90%
    22:00 +15°C° 0 mm 4 m/s 753 mmHg 90%
    23:00 +15°C° 0 mm 4 m/s 753 mmHg 91%

    Après-demain, 23 Août, Vendredi

    Heure Température Précipitation Vent Pression Humidité
    00:00 +14°C° 0 mm 3 m/s 753 mmHg 91%
    01:00 +14°C° 0 mm 3 m/s 754 mmHg 92%
    02:00 +13°C° 0 mm 3 m/s 754 mmHg 93%
    03:00 +13°C° 0 mm 3 m/s 754 mmHg 94%
    04:00 +12°C° 0 mm 3 m/s 754 mmHg 94%
    05:00 +12°C° 0 mm 3 m/s 754 mmHg 95%
    06:00 +13°C° 0 mm 3 m/s 754 mmHg 90%
    07:00 +16°C° 0 mm 3 m/s 755 mmHg 84%
    08:00 +17°C° 0 mm 4 m/s 755 mmHg 79%
    09:00 +19°C° 0 mm 3 m/s 755 mmHg 74%
    10:00 +20°C° 0 mm 3 m/s 755 mmHg 68%
    11:00 +21°C° 0 mm 3 m/s 755 mmHg 63%
    12:00 +21°C° 0 mm 3 m/s 755 mmHg 61%
    13:00 +22°C° 0 mm 3 m/s 754 mmHg 59%
    14:00 +22°C° 0 mm 3 m/s 754 mmHg 57%
    15:00 +22°C° 0 mm 3 m/s 754 mmHg 60%
    16:00 +21°C° 0 mm 2 m/s 754 mmHg 64%
    17:00 +21°C° 0 mm 2 m/s 754 mmHg 68%
    18:00 +19°C° 0 mm 2 m/s 754 mmHg 71%
    19:00 +18°C° 0 mm 1 m/s 754 mmHg 74%
    20:00 +15°C° 0 mm 1 m/s 754 mmHg 77%
    21:00 +15°C° 0 mm 1 m/s 755 mmHg 79%
    22:00 +14°C° 0 mm 1 m/s 755 mmHg 81%
    23:00 +14°C° 0 mm 1 m/s 755 mmHg 82%

    24 Août, Samedi

    Heure Température Précipitation Vent Pression Humidité
    00:00 +14°C° 0 mm 1 m/s 755 mmHg 83%
    01:00 +13°C° 0 mm 1 m/s 755 mmHg 85%
    02:00 +13°C° 0 mm 1 m/s 755 mmHg 86%
    03:00 +13°C° 0 mm 1 m/s 755 mmHg 86%
    04:00 +13°C° 0 mm 1 m/s 755 mmHg 86%
    05:00 +13°C° 0 mm 1 m/s 755 mmHg 86%
    06:00 +14°C° 0 mm 1 m/s 755 mmHg 81%
    07:00 +16°C° 0 mm 1 m/s 755 mmHg 75%
    08:00 +19°C° 0 mm 1 m/s 755 mmHg 70%
    09:00 +21°C° 0 mm 1 m/s 755 mmHg 64%
    10:00 +20°C° 0 mm 0 m/s 755 mmHg 59%
    11:00 +22°C° 0 mm 0 m/s 755 mmHg 53%
    12:00 +22°C° 0 mm 0 m/s 755 mmHg 51%
    13:00 +24°C° 0 mm 1 m/s 755 mmHg 49%
    14:00 +25°C° 0 mm 1 m/s 754 mmHg 47%
    15:00 +24°C° 0 mm 1 m/s 754 mmHg 51%
    16:00 +24°C° 0 mm 1 m/s 754 mmHg 56%
    17:00 +23°C° 0 mm 1 m/s 753 mmHg 61%
    18:00 +21°C° 0 mm 1 m/s 753 mmHg 64%
    19:00 +19°C° 0 mm 1 m/s 753 mmHg 68%
    20:00 +16°C° 0 mm 1 m/s 753 mmHg 72%
    21:00 +16°C° 0 mm 1 m/s 753 mmHg 73%
    22:00 +16°C° 0 mm 1 m/s 753 mmHg 74%
    23:00 +15°C° 0 mm 1 m/s 753 mmHg 75%

    25 Août, Dimanche

    Heure Température Précipitation Vent Pression Humidité
    00:00 +15°C° 0 mm 1 m/s 753 mmHg 77%
    01:00 +14°C° 0 mm 1 m/s 753 mmHg 80%
    02:00 +14°C° 0 mm 1 m/s 753 mmHg 82%
    03:00 +14°C° 0 mm 1 m/s 752 mmHg 84%
    04:00 +13°C° 0 mm 1 m/s 752 mmHg 86%
    05:00 +13°C° 0 mm 1 m/s 752 mmHg 88%
    06:00 +15°C° 0 mm 2 m/s 752 mmHg 83%
    07:00 +17°C° 0 mm 2 m/s 752 mmHg 79%
    08:00 +19°C° 0 mm 2 m/s 752 mmHg 74%
    09:00 +20°C° 0 mm 2 m/s 752 mmHg 70%
    10:00 +21°C° 0 mm 3 m/s 752 mmHg 65%
    11:00 +24°C° 0 mm 3 m/s 752 mmHg 61%
    12:00 +24°C° 0 mm 3 m/s 752 mmHg 60%
    13:00 +24°C° 0 mm 3 m/s 751 mmHg 59%
    14:00 +25°C° 0 mm 4 m/s 751 mmHg 59%
    15:00 +23°C° 0.3 mm 4 m/s 751 mmHg 66%
    16:00 +22°C° 0.3 mm 4 m/s 751 mmHg 73%
    17:00 +21°C° 0.3 mm 3 m/s 751 mmHg 80%
    18:00 +19°C° 0.1 mm 3 m/s 752 mmHg 84%
    19:00 +18°C° 0.1 mm 3 m/s 752 mmHg 88%
    20:00 +16°C° 0.1 mm 3 m/s 752 mmHg 92%
    21:00 +14°C° 0 mm 3 m/s 753 mmHg 92%
    22:00 +13°C° 0 mm 3 m/s 753 mmHg 91%
    23:00 +12°C° 0 mm 3 m/s 754 mmHg 91%

    26 Août, Lundi

    Heure Température Précipitation Vent Pression Humidité
    00:00 +12°C° 0 mm 3 m/s 754 mmHg 92%
    01:00 +11°C° 0 mm 3 m/s 754 mmHg 93%
    02:00 +12°C° 0 mm 2 m/s 755 mmHg 94%
    03:00 +10°C° 0 mm 2 m/s 755 mmHg 94%
    04:00 +10°C° 0 mm 2 m/s 755 mmHg 94%
    05:00 +10°C° 0 mm 2 m/s 755 mmHg 95%
    06:00 +12°C° 0 mm 2 m/s 756 mmHg 90%
    07:00 +14°C° 0 mm 2 m/s 756 mmHg 84%
    08:00 +16°C° 0 mm 2 m/s 756 mmHg 79%
    09:00 +17°C° 0 mm 2 m/s 757 mmHg 73%
    10:00 +18°C° 0 mm 2 m/s 757 mmHg 66%
    11:00 +19°C° 0 mm 2 m/s 757 mmHg 59%
    12:00 +20°C° 0 mm 2 m/s 757 mmHg 57%
    13:00 +20°C° 0 mm 2 m/s 756 mmHg 54%
    14:00 +21°C° 0 mm 2 m/s 756 mmHg 52%
    15:00 +20°C° 0 mm 2 m/s 756 mmHg 55%
    16:00 +20°C° 0 mm 2 m/s 756 mmHg 59%
    17:00 +20°C° 0 mm 1 m/s 756 mmHg 63%
    18:00 +18°C° 0 mm 1 m/s 756 mmHg 68%
    19:00 +16°C° 0 mm 2 m/s 756 mmHg 72%
    20:00 +14°C° 0 mm 2 m/s 756 mmHg 76%
    21:00 +13°C° 0 mm 2 m/s 756 mmHg 78%
    22:00 +13°C° 0 mm 2 m/s 756 mmHg 79%
    23:00 +12°C° 0 mm 2 m/s 756 mmHg 81%
    Voir plus